Location: Riverside Cemetery
(38.3047°N, 99.7773°W)
Time: 10:14:50
(UTC+00:00)

ADEOS II - Pass Details

Date: 19 September 2020
Orbit: 799 x 801 km, 98.5° (Epoch: 25 October)

Event Time Altitude Azimuth Distance (km) Brightness Sun altitude
Rises 09:58:39 0° 359° (N) 3,315 5.6 -28.4°
Reaches altitude 10° 10:01:20 10° 347° (NNW) 2,380 4.7 -27.9°
Enters shadow 10:03:06 18° 332° (NNW) 1,878 4.0 -27.6°
